www.pogodaiklimat.ru

Погода и климат >> Архив погоды >> Сенегал >> Диурбель


ПОГОДА в Диурбеле

  • Прогноз погоды в Диурбеле
  • Монитор погоды в Диурбеле

АРХИВ ПОГОДЫ в Диурбеле

Время (UTC), дата Ветер
(напр.,м/с)
 
Видим.   Явления Облачность Т
(С)
Тd
(С)
f
(%)
Тe
(С)
Тes
(С)
Комфортность P
(гПа)
Po
(гПа)
Тmin
(С)
Tmax
(С)
R
(мм)
R24
(мм)
S
(см)
21 16.09 штиль 0 8000 м {гроза, дождь} 10/0
[Ac As]
+22.7 +22.3 98 +31 +31 очень
душно
1012.8 1011.8
00 17.09 штиль 0 8000 м {гроза, дождь} 8/0
[Ac As]
+23.3 +22.4 95 +32 +32 очень
душно
1012.6 1011.6 7
03 17.09 штиль 0 8000 м 6/0
[Ac cast]
+23.5 +23.1 98 +31 +31 очень
душно
1010.6 1009.6
06 17.09 штиль 0 8000 м 8/0
[Ac cast Ci sp]
+23.0 +22.4 96 +31 +31 очень
душно
1012.6 1011.6 +22.4 36
09 17.09 С 2 10 км 8/0
[Ac cast Ci sp]
+24.4 +23.5 95 +33 +36 очень
душно
1012.2 1011.2
12 17.09 штиль 0 10 км 6/0
[Ac cast]
+31.0 +26.2 76 +47 +62 опасность
перегрева
1012.3 1011.3
15 17.09 СВ 1 10 км 8/3 450 м
[Sc Ac cast]
+33.0 +26.1 67 +49 +55 опасность
перегрева
1010.1 1009.1
18 17.09 штиль 0 10 км 6/5 450 м
[Sc Ac cast]
+33.8 +26.5 66 +51 +52 опасность
перегрева
1009.6 1008.6 +34.8
21 17.09 штиль 0 8000 м ясно +28.9 +27.3 91 +46 +46 опасность
перегрева
1011.0 1010.0
00 18.09 штиль 0 8000 м 4/0
[Ac cast]
+28.0 +26.6 92 +43 +43 опасность
перегрева
1013.0 1012.0
03 18.09 штиль 0 8000 м ясно +27.0 +26.0 94 +40 +40 очень
душно
1010.3 1009.3
06 18.09 штиль 0 8000 м ясно +26.3 +25.7 97 +39 +39 очень
душно
1010.7 1009.7 +26.3
09 18.09 штиль 0 10 км 5/5 450 м
[Sc]
+28.1 +27.0 94 +44 +48 опасность
перегрева
1013.1 1012.1
12 18.09 З 1 10 км 6/6 450 м
[Sc]
+32.5 +27.0 73 +51 +60 опасность
перегрева
1012.6 1011.6
15 18.09 штиль 0 10 км 8/8 450 м
[Cu med, cong]
+34.4 +26.3 63 +51 +55 опасность
перегрева
1010.0 1009.0
18 18.09 З 1 10 км 4/4 450 м
[Cu med, cong]
+34.0 +25.7 62 +49 +50 опасность
перегрева
1009.8 1008.8 +35.4
21 18.09 ЮЗ 1 8000 м 4/0
[Ac cast]
+30.5 +26.5 79 +47 +47 опасность
перегрева
1011.4 1010.4
00 19.09 штиль 0 8000 м ясно +29.0 +26.8 88 +45 +45 опасность
перегрева
1012.4 1011.4
03 19.09 штиль 0 8000 м зарница 1/1 900 м
[Cb calv]
+28.0 +26.6 92 +43 +43 опасность
перегрева
1011.0 1010.0
06 19.09 штиль 0 8000 м в посл. час гроза {дождь} 10/0
[Ac As]
+23.3 +22.6 96 +32 +32 очень
душно
1011.2 1010.2 +22.5 8
09 19.09 штиль 0 10 км 9/0
[Ac cast]
+25.5 +24.1 92 +35 +38 очень
душно
1013.3 1012.3
12 19.09 Ю 3 10 км 9/0
[Ac cast Ci sp]
+29.2 +24.7 77 +42 +50 опасность
перегрева
1012.8 1011.8
15 19.09 Ю 2 10 км 9/6 450 м
[Cu med, cong Ci sp]
+31.4 +25.2 70 +45 +51 опасность
перегрева
1010.5 1009.5
18 19.09 штиль 0 10 км 9/5 450 м
[Cb calv Ac As]
+30.2 +26.3 80 +46 +47 опасность
перегрева
1010.6 1009.6 +32.5
21 19.09 штиль 0 8000 м слаб. дождь {гроза} 10/4 450 м
[Sc Ac As]
+26.8 +25.7 94 +40 +40 очень
душно
1012.5 1011.5
00 20.09 ЮЗ 1 8000 м {гроза, дождь} 9/3 300 м
[Sc Ac As]
+25.9 +25.2 96 +37 +37 очень
душно
1013.2 1012.2 0.8
03 20.09 штиль 0 8000 м 9/0
[Ac cast]
+25.3 +24.9 98 +36 +36 очень
душно
1012.2 1011.2
06 20.09 штиль 0 8000 м слаб. дождь 10/0
[Ac As]
+25.0 +24.3 96 +35 +35 очень
душно
1012.1 1011.1 +24.8 0.9
09 20.09 Ю 1 10 км 9/0
[Ac As]
+27.0 +25.5 92 +40 +42 очень
душно
1013.7 1012.7
12 20.09 Ю 2 10 км 9/5 450 м
[Sc Ac cast]
+29.9 +25.9 79 +45 +49 опасность
перегрева
1013.6 1012.6
15 20.09 Ю 2 10 км 9/5 450 м
[Sc Ac cast]
+31.3 +26.0 74 +47 +51 опасность
перегрева
1011.9 1010.9
18 20.09 штиль 0 10 км 8/0
[Ac cast]
+30.8 +24.3 68 +43 +44 опасность
перегрева
1010.8 1009.8 +33.0
21 20.09 ЮЗ 1 8000 м 8/0
[Ac As]
+28.8 +25.0 80 +42 +42 опасность
перегрева
1013.0 1012.0
00 21.09 штиль 0 8000 м 4/0
[Ac trans]
+28.1 +25.7 87 +42 +42 опасность
перегрева
1014.0 1013.0
03 21.09 штиль 0 8000 м слаб. дождь 10/0
[Ac As]
+25.0 +23.5 91 +34 +34 очень
душно
1013.8 1012.8
06 21.09 штиль 0 8000 м в посл. час дождь 10/0
[Ac As]
+24.4 +23.4 94 +33 +33 очень
душно
1012.4 1011.4 +24.4 1
09 21.09 штиль 0 10 км 9/0
[Ac As]
+24.8 +23.6 93 +34 +36 очень
душно
1013.7 1012.7
12 21.09 Ю 1 10 км 9/5 450 м
[Sc Ac trans Ci sp]
+30.0 +24.0 70 +41 +48 опасность
перегрева
1014.0 1013.0
15 21.09 ЮВ 2 10 км 6/0
[Ac cast]
+32.6 +24.1 61 +45 +54 опасность
перегрева
1012.0 1011.0
18 21.09 В 2 10 км 4/4 450 м
[Sc]
+32.0 +25.0 67 +46 +47 опасность
перегрева
1011.0 1010.0 +33.2
21 21.09 штиль 0 8000 м 4/0
[Ac trans]
+30.0 +25.8 78 +45 +45 опасность
перегрева
1012.2 1011.2
00 22.09 штиль 0 8000 м 5/0
[Ac trans]
+28.6 +26.8 90 +45 +45 опасность
перегрева
1012.6 1011.6
03 22.09 штиль 0 8000 м 4/0
[Ac cast]
+27.4 +26.0 92 +41 +41 опасность
перегрева
1012.3 1011.3
06 22.09 штиль 0 8000 м 6/0
[Ac As]
+27.5 +26.8 96 +43 +43 опасность
перегрева
1012.3 1011.3 +27.3
09 22.09 штиль 0 10 км 8/0
[Ac As]
+26.6 +24.3 87 +37 +40 очень
душно
1013.3 1012.3
15 22.09 ЮВ 2 10 км 8/4 450 м
[Sc Ac As]
+33.0 +25.2 64 +47 +52 опасность
перегрева
1011.2 1010.2
18 22.09 ЮВ 1 10 км {гроза, дождь} 10/0
[Ac As]
+31.0 +25.4 72 +45 +46 опасность
перегрева
1010.8 1009.8 +33.2 0.6
21 22.09 штиль 0 8000 м 8/0
[Ac As]
+29.6 +26.0 81 +44 +44 опасность
перегрева
1012.7 1011.7
00 23.09 штиль 0 8000 м 8/0
[Ac As]
+28.4 +26.0 87 +43 +43 опасность
перегрева
1013.5 1012.5
03 23.09 ЮЗ 3 8000 м 8/5 400 м
[Sc Ac cast]
+27.5 +26.0 92 +41 +41 опасность
перегрева
1012.5 1011.5
06 23.09 штиль 0 8000 м 6/0
[Ac cast]
+26.6 +25.8 95 +39 +39 очень
душно
1013.0 1012.0 +26.5 0.6
09 23.09 ЮЗ 2 10 км 10/0
[Ac cast]
+27.4 +26.0 92 +41 +42 опасность
перегрева
1014.3 1013.3
12 23.09 ЮЗ 3 10 км 9/4 450 м
[Sc Ac As]
+30.6 +25.0 72 +44 +48 опасность
перегрева
1015.3 1014.3
15 23.09 З 1 10 км 8/4 450 м
[Sc Ac cast]
+34.1 +23.3 53 +44 +50 опасность
перегрева
1013.0 1012.0
18 23.09 штиль 0 10 км 5/0
[Ac cast]
+34.0 +23.3 54 +45 +46 опасность
перегрева
1012.6 1011.6 +35.5

 

Местоположение метеостанции Диурбель (Сенегал): широта 14.65 долгота -16.23 высота над уровнем моря 9 м.

В архиве по умолчанию представлена погода в Диурбеле за последнюю неделю. Архивные данные за месяц целиком и за предыдущие месяцы, начиная с января 2011 года, Вы можете получить, выбрав интересующий диапазон дат из раскрывающегося списка и нажав кнопку "Ввод!".


*Определитесь, кто Вы:
робот инопланетянин человек

Внимание! Время в таблицах - всемирное. Для получения местного времени необходимо прибавить поправку, которая равна 0 ч.

Смотрите также архив погоды в соседних городах и на ближайших метеорологических станциях:

Погода в Каолаке (Сенегал) (61 км)
Погода в Сапу (Гамбия) (124 км)
Погода в Кереване (Гамбия) (130 км)
Погода в Банжуле Half-Die (Гамбия) (136 км)
Погода в Дакаре (Сенегал) (137 км)
Погода в Кауере (Гамбия) (143 км)
Погода в Лингере (Сенегал) (145 км)
Погода в Женое (Гамбия) (148 км)
Погода в Банжуле (Гамбия) (153 км)
Погода в Сент-Луисе (Сенегал) (157 км)

Пояснения к столбцам:

Ветер - указаны скорость ветра в м/с - средняя за 10 мин, порывы в срок и между сроками (в фигурных скобках) и направление, откуда дует ветер: С - северный, СВ - северо-восточный, В - восточный, ЮВ - юго-восточный, Ю - южный, ЮЗ - юго-западный, З - западный, СЗ - северо-западный.
Видимость - горизонтальная дальность видимости в метрах или километрах. При видимости от 1 до 10 км при отсутствии осадков обычно наблюдается дымка, при ухудшении видимости до 1 км и менее - туман. В сухую погоду видимость может ухудшаться дымом, пылью или мглою.
Явления - указаны атмосферные явления, наблюдавшиеся в срок или в последний час перед сроком; фигурными скобками обозначены явления, наблюдавшиеся между сроками (за 1-3 часа до срока); квадратными скобками обозначены град или гололедные отложения с указанием их диаметра в мм.
Облачность - указаны через наклонную черту общая и нижняя облачность в баллах и высота нижней границы облаков в метрах; квадратными скобками обозначены формы облаков: Ci - перистые, Cs - перисто-слоистые, Cc - перисто-кучевые, Ac - высококучевые, As - высокослоистые, Sc - слоисто-кучевые, Ns - слоисто-дождевые, Cu - кучевые, Cb - кучево-дождевые. Подробнее классификацию облаков см. в Атласе облаков (PDF).
T - Температура воздуха - температура, измеренная на высоте 2 м над землей.
Td - Температура точки росы - температура, при понижении до которой содержащийся в воздухе водяной пар достигнет насыщения.
f - Относительная влажность воздуха - влажноcть воздуха, измеренная на высоте 2 м над землей.
Te - Эффективная температура - температура, которую ощущает одетый по сезону человек в тени. Характеристика душности погоды. При расчете учитывается влияние влажности воздуха и скорости ветра на теплоощущения человека.
Tes - Эффективная температура на солнце - температура, которую ощущает человек, с поправкой на солнечный нагрев. Характеристика знойности погоды. Зависит от высоты солнца над горизонтом, облачности и скорости ветра. Ночью, в пасмурную погоду, а также при ветре 12 м/с и более поправка равна нулю.
P - Атмосферное давление - приведенное к уровню моря атмосферное давление.
Po - Атмосферное давление - измеренное на уровне метеостанции атмосферное давление.
Tmin - Минимальная температура - минимум температуры воздуха на высоте 2 м над землей.
Tmax - Максимальная температура - максимум температуры воздуха на высоте 2 м над землей.
R - Количество осадков - Количество выпавших осадков за период времени, мм. При наведении курсора мыши на число - период времени, за который выпало указанное количество осадков.
R24 - Количество осадков - Количество выпавших осадков за 24 часа, мм.
S - Снежный покров - Высота снежного покрова, см. При наведении курсора мыши на число - состояние снежного покрова и степень покрытия местности в баллах.